Weather History for K2G4 - January, 2013

Change the Weather History Date:

Monday, January 28, 2013

  Actual Average (KMGW) Record (KMGW)
Temperature  
Mean Temperature 36 °F 32 °F  
Max Temperature 46 °F 40 °F 64 °F (2002)
Min Temperature 26 °F 24 °F -9 °F (2014)
Degree Days  
Heating Degree Days 29 33  
Month to date heating degree days 946  
Since 1 July heating degree days 2930  
Cooling Degree Days 0 0  
Month to date cooling degree days 0  
Year to date cooling degree days 0  
Moisture  
Dew Point 38 °F    
Average Humidity 97    
Maximum Humidity 100    
Minimum Humidity 74    
Precipitation  
Precipitation 0.00 in 0.10 in 0.73 in (1951)
Month to date precipitation 2.54  
Year to date precipitation 2.54  
Sea Level Pressure  
Sea Level Pressure 30.10 in    
Wind  
Wind Speed 13 mph (SW)    
Max Wind Speed 21 mph    
Max Gust Speed 38 mph    
Visibility 4 miles    
Events Fog    
T = Trace of Precipitation, MM = Missing Value Source: NWS Daily Summary

Daily Weather History Graph

Daily Weather History Graph

Search for Another Location

Airport or City:

Trip Planner

Search our weather history database for the weather conditions in past years. The results will help you decide how hot, cold, wet, or windy it might be!

Date:

Astronomy

Jan. 28, 2013 Rise Set
Actual Time 7:28 AM EST 5:32 PM EST
Civil Twilight 6:59 AM EST 6:01 PM EST
Nautical Twilight 6:27 AM EST 6:34 PM EST
Astronomical Twilight 5:55 AM EST 7:05 PM EST
Moon 7:25 PM EST (1/28) 7:53 AM EST (1/28)
Length of Visible Light 11h 02m
Length of Day
10h 04m
Full, 98% of the Moon is Illuminated
Jan 28
Full
Feb 3
Last Quarter
Feb 10
New
Feb 17
First Quarter
Feb 25
Full

Hourly Weather History & Observations

Time (EST) Temp. Windchill Dew Point Humidity Pressure Visibility Wind Dir Wind Speed Gust Speed Precip Events Conditions
12:10 AM 26.6 °F 16.2 °F 19.4 °F 74% 30.25 in 10.0 mi SE 11.5 mph - N/A   Overcast
12:30 AM 26.6 °F 16.2 °F 19.4 °F 74% 30.24 in 10.0 mi SE 11.5 mph - N/A   Overcast
12:50 AM 26.6 °F 16.2 °F 19.4 °F 74% 30.24 in 10.0 mi SE 11.5 mph - N/A   Overcast
1:10 AM 26.6 °F 16.8 °F 19.4 °F 74% 30.24 in 10.0 mi SE 10.4 mph - N/A   Overcast
1:35 AM 26.6 °F 17.5 °F 21.2 °F 80% 30.22 in 10.0 mi SSE 9.2 mph - N/A   Overcast
1:55 AM 26.6 °F 18.2 °F 21.2 °F 80% 30.22 in 7.0 mi SE 8.1 mph - N/A   Overcast
2:15 AM 26.6 °F 18.2 °F 21.2 °F 80% 30.22 in 7.0 mi SE 8.1 mph - N/A   Overcast
2:40 AM 26.6 °F 19.1 °F 23.0 °F 86% 30.22 in 7.0 mi SSE 6.9 mph - N/A   Overcast
3:00 AM 26.6 °F 18.2 °F 24.8 °F 93% 30.20 in 7.0 mi SE 8.1 mph - N/A   Overcast
3:20 AM 26.6 °F 19.1 °F 26.6 °F 100% 30.19 in 5.0 mi SSE 6.9 mph - N/A   Overcast
3:40 AM 28.4 °F 19.7 °F 28.4 °F 100% 30.17 in 5.0 mi SSE 9.2 mph - N/A   Overcast
4:05 AM 28.4 °F 17.5 °F 28.4 °F 100% 30.16 in 7.0 mi South 13.8 mph - N/A   Overcast
4:25 AM 30.2 °F 19.8 °F 30.2 °F 100% 30.15 in 7.0 mi South 13.8 mph - N/A   Overcast
4:45 AM 30.2 °F 20.8 °F 30.2 °F 100% 30.15 in 7.0 mi South 11.5 mph - N/A   Overcast
5:05 AM 30.2 °F 20.8 °F 30.2 °F 100% 30.15 in 5.0 mi South 11.5 mph - N/A   Overcast
5:30 AM 32.0 °F 25.6 °F 32.0 °F 100% 30.17 in 4.0 mi SW 6.9 mph - N/A   Overcast
5:50 AM 32.0 °F 24.2 °F 32.0 °F 100% 30.16 in 5.0 mi SSW 9.2 mph - N/A   Overcast
6:10 AM 32.0 °F 22.5 °F 32.0 °F 100% 30.15 in 4.0 mi SSW 12.7 mph - N/A   Overcast
6:55 AM 33.8 °F 24.3 °F 33.8 °F 100% 30.15 in 2.0 mi SW 13.8 mph 20.7 mph N/A   Overcast
7:15 AM 33.8 °F 23.5 °F 33.8 °F 100% 30.15 in 1.5 mi SW 16.1 mph 23.0 mph N/A   Overcast
7:35 AM 35.6 °F 26.6 °F 35.6 °F 100% 30.16 in 3.0 mi SW 13.8 mph 21.9 mph N/A   Overcast
7:55 AM 37.4 °F 28.9 °F 37.4 °F 100% 30.16 in 2.5 mi WSW 13.8 mph 21.9 mph N/A   Overcast
8:20 AM 37.4 °F 27.5 °F 37.4 °F 100% 30.16 in 4.0 mi SW 18.4 mph 26.5 mph N/A   Overcast
8:40 AM 41.0 °F 33.1 °F 41.0 °F 100% 30.16 in 5.0 mi WSW 15.0 mph 27.6 mph N/A   Overcast
9:00 AM 41.0 °F 32.8 °F 41.0 °F 100% 30.15 in 5.0 mi WSW 16.1 mph 27.6 mph N/A   Overcast
9:20 AM 41.0 °F 31.9 °F 41.0 °F 100% 30.13 in 10.0 mi WSW 19.6 mph 29.9 mph N/A   Overcast
10:05 AM 42.8 °F 35.1 °F 42.8 °F 100% 30.12 in 10.0 mi SW 16.1 mph 25.3 mph N/A   Overcast
10:25 AM 42.8 °F 36.2 °F 42.8 °F 100% 30.12 in 10.0 mi SW 12.7 mph 33.4 mph N/A   Overcast
10:45 AM 42.8 °F 35.4 °F 42.8 °F 100% 30.12 in 10.0 mi SW 15.0 mph 24.2 mph N/A   Overcast
11:10 AM 42.8 °F 35.8 °F 42.8 °F 100% 30.12 in 5.0 mi SW 13.8 mph 26.5 mph N/A   Overcast
11:30 AM 42.8 °F 34.8 °F 42.8 °F 100% 30.11 in 7.0 mi SW 17.3 mph 24.2 mph N/A   Overcast
11:50 AM 44.6 °F 38.4 °F 44.6 °F 100% 30.10 in 7.0 mi WSW 12.7 mph 26.5 mph N/A   Overcast
12:10 PM 44.6 °F 38.1 °F 44.6 °F 100% 30.08 in 7.0 mi SW 13.8 mph 26.5 mph N/A   Overcast
12:55 PM 44.6 °F 38.1 °F 44.6 °F 100% 30.06 in 10.0 mi SW 13.8 mph 33.4 mph N/A   Overcast
1:15 PM 44.6 °F 36.9 °F 44.6 °F 100% 30.04 in 10.0 mi SW 18.4 mph 25.3 mph N/A   Overcast
1:35 PM 44.6 °F 39.7 °F 44.6 °F 100% 30.04 in 10.0 mi SW 9.2 mph 26.5 mph N/A   Overcast
2:00 PM 42.8 °F 36.2 °F 42.8 °F 100% 30.04 in 4.0 mi WSW 12.7 mph 27.6 mph N/A   Overcast
2:20 PM 42.8 °F 35.4 °F 42.8 °F 100% 30.03 in 3.0 mi WSW 15.0 mph 23.0 mph N/A   Overcast
2:40 PM 42.8 °F 35.4 °F 42.8 °F 100% 30.03 in 3.0 mi WSW 15.0 mph 31.1 mph N/A   Overcast
3:00 PM 42.8 °F 34.3 °F 42.8 °F 100% 30.03 in 2.5 mi WSW 19.6 mph 29.9 mph N/A   Overcast
3:25 PM 42.8 °F 35.4 °F 42.8 °F 100% 30.03 in 2.0 mi WSW 15.0 mph 29.9 mph N/A   Overcast
3:45 PM 42.8 °F 34.0 °F 42.8 °F 100% 30.03 in 4.0 mi WSW 20.7 mph 32.2 mph N/A   Overcast
4:05 PM 42.8 °F 34.8 °F 42.8 °F 100% 30.03 in 1.5 mi WSW 17.3 mph 33.4 mph N/A   Overcast
4:25 PM 44.6 °F 37.2 °F 44.6 °F 100% 30.03 in 2.0 mi WSW 17.3 mph 38.0 mph N/A   Overcast
4:50 PM 44.6 °F 38.4 °F 44.6 °F 100% 30.03 in 2.5 mi WSW 12.7 mph 28.8 mph N/A   Overcast
5:10 PM 44.6 °F 36.9 °F 44.6 °F 100% 30.04 in 2.5 mi WSW 18.4 mph 32.2 mph N/A   Overcast
5:30 PM 44.6 °F 37.4 °F 44.6 °F 100% 30.04 in 2.0 mi WSW 16.1 mph 25.3 mph N/A   Overcast
5:50 PM 44.6 °F 38.1 °F 44.6 °F 100% 30.04 in 1.8 mi WSW 13.8 mph 27.6 mph N/A   Overcast
6:15 PM 44.6 °F 36.9 °F 44.6 °F 100% 30.03 in 2.0 mi WSW 18.4 mph 26.5 mph N/A   Overcast
6:35 PM 44.6 °F 38.8 °F 44.6 °F 100% 30.04 in 2.5 mi WSW 11.5 mph 25.3 mph N/A   Overcast
6:55 PM 44.6 °F 38.4 °F 44.6 °F 100% 30.05 in 0.5 mi WSW 12.7 mph 21.9 mph N/A Fog Fog
7:15 PM 44.6 °F 37.8 °F 44.6 °F 100% 30.04 in 0.5 mi WSW 15.0 mph 26.5 mph N/A Fog Fog
7:40 PM 44.6 °F 38.1 °F 44.6 °F 100% 30.04 in 0.2 mi WSW 13.8 mph 26.5 mph N/A Fog Fog
8:00 PM 44.6 °F 39.2 °F 44.6 °F 100% 30.04 in 0.2 mi WSW 10.4 mph 25.3 mph N/A Fog Fog
8:20 PM 44.6 °F 37.2 °F 44.6 °F 100% 30.04 in 0.2 mi WSW 17.3 mph 24.2 mph N/A Fog Fog
8:40 PM 44.6 °F 37.4 °F 44.6 °F 100% 30.04 in 0.2 mi WSW 16.1 mph 23.0 mph N/A Fog Fog
9:05 PM 44.6 °F 36.9 °F 44.6 °F 100% 30.04 in 0.2 mi WSW 18.4 mph 26.5 mph N/A Fog Fog
9:25 PM 44.6 °F 37.4 °F 44.6 °F 100% 30.04 in 0.2 mi West 16.1 mph 24.2 mph N/A Fog Fog
9:45 PM 44.6 °F 37.2 °F 44.6 °F 100% 30.04 in 0.2 mi WSW 17.3 mph 24.2 mph N/A Fog Fog
10:05 PM 46.4 °F 41.1 °F 46.4 °F 100% 30.04 in 0.2 mi WSW 11.5 mph 28.8 mph N/A Fog Fog
10:30 PM 46.4 °F 39.5 °F 46.4 °F 100% 30.04 in 0.2 mi WSW 17.3 mph 24.2 mph N/A Fog Fog
10:50 PM 46.4 °F 39.8 °F 46.4 °F 100% 30.04 in 0.2 mi WSW 16.1 mph 23.0 mph N/A Fog Fog
11:10 PM 46.4 °F 40.4 °F 46.4 °F 100% 30.04 in 0.5 mi WSW 13.8 mph 25.3 mph N/A Fog Fog
11:30 PM 46.4 °F 40.1 °F 46.4 °F 100% 30.04 in 0.2 mi West 15.0 mph 23.0 mph N/A Fog Fog
11:55 PM 46.4 °F 41.1 °F 46.4 °F 100% 30.05 in 0.2 mi West 11.5 mph 23.0 mph N/A Fog Fog